Regional Weather Roundup
Issued by NWS

Home | Current Version | Previous Version | Graphics & Text | Print | Product List | Glossary On
Versions: 1 2 3 4 5 6 7 8 9 10 11 12 13 14 15 16 17 18 19 20 21 22 23 24 25 26 27
000
ASUS45 KBOU 030207
RWRCO

WEATHER ROUNDUP FOR COLORADO
NATIONAL WEATHER SERVICE DENVER/BOULDER CO
800 PM MDT MON MAY 02 2016

NOTE: "FAIR" INDICATES FEW OR NO CLOUDS BELOW 12000 FEET WITH NO
SIGNIFICANT WEATHER AND/OR OBSTRUCTIONS TO VISIBILITY.

COZ001>005-013-030-031-030300-
...NORTHWEST COLORADO...

CITY           SKY/WX    TMP DP  RH WIND       PRES   REMARKS
CRAIG          FAIR      53  26  35 W6        30.17S
HAYDEN         FAIR      52  19  28 NW10      30.18S
MEEKER         FAIR      55  25  31 NW6       30.18R
MOUNT WERNER   NOT AVBL
STEAMBOAT SPGS FAIR      51  24  35 W12       30.18S
WALDEN         FAIR      41  16  36 NW8       30.23R
$$

COZ006>008-011-030300-
...WEST CENTRAL VALLEYS...

CITY           SKY/WX    TMP DP  RH WIND       PRES   REMARKS
GRAND JUNCTION FAIR      59  34  39 W7        30.11S
MONTROSE       FAIR      56  30  37 NW8       30.16R
EAGLE          CLOUDY    57  25  28 E3        30.16S
RIFLE          FAIR      59  25  27 NW8       30.12R
DELTA          NOT AVBL
NUCLA          NOT AVBL
$$

COZ017>023-064>068-030300-
...SOUTHWEST COLORADO...

CITY           SKY/WX    TMP DP  RH WIND       PRES   REMARKS
DURANGO        FAIR      46  35  65 N16       30.19R
CORTEZ         LGT RAIN  50  39  66 NE12      30.18R
PAGOSA SPRINGS FAIR      45  34  66 NE3       30.22R
TELLURIDE      MOCLDY    39  31  73 SE6       30.30R
WOLF CREEK PAS LGT SNOW  27  27 100 CALM      30.36S VSB 3/4
$$

COZ009-010-012-014-032>034-037-058>063-030300-
...CENTRAL COLORADO...

CITY           SKY/WX    TMP DP  RH WIND       PRES   REMARKS
ASPEN          CLOUDY    48  28  46 CALM      30.20R
BUENA VISTA    FAIR      45  29  54 CALM      30.17S
COPPER MTN     NOT AVBL
BERTHOUD PASS  MOCLDY    21  10  63 NW25G36   30.30F WCI   4
COTTONWOOD PAS FAIR      43  18  36 W6        30.24S
GUNNISON       FAIR      52  27  37 NW5       30.20R
KREMMLING      FAIR      50  19  29 NW9G16    30.20S
LEADVILLE      FAIR      38  18  44 NW8       30.23R
MONARCH PASS   FAIR      28  27  93 MISG      30.42S
SALIDA         FAIR      51  29  42 W6        30.23R
SUNLIGHT       NOT AVBL
WILKERSON PASS FAIR      32  21  64 N9        30.31S WCI  24
$$

COZ069>075-030300-
...SAN LUIS VALLEY/SANGRE DE CRISTO MOUNTAINS...

CITY           SKY/WX    TMP DP  RH WIND       PRES   REMARKS
ALAMOSA        FAIR      46  33  60 SW13      30.17S
LA VETA PASS   FAIR      34  28  80 CALM      30.26F
SAGUACHE       FAIR      48  28  46 S3        30.17S
$$

COZ035-036-038>040-030300-
...NORTHERN COLORADO FRONT RANGE...

CITY           SKY/WX    TMP DP  RH WIND       PRES   REMARKS
DENVER INTL AP FAIR      52  23  32 N6        30.11S
DMNS CITY PARK   N/A     54  23  30 E10       30.12R
AURORA         NOT AVBL
FRONT RANGE AP PTCLDY    50  28  43 CALM      30.12S
ERIE MUNI ARPT FAIR      55  30  39 CALM      30.11R
BOULDER MUN AP FAIR      54  28  37 CALM      30.11R
CENTENNIAL     FAIR      53  24  32 CALM      30.13R
BROOMFIELD     PTCLDY    55  25  30 CALM      30.13R
FORT COLLINS   FAIR      55  30  38 NW3       30.11R
LONGMONT       FAIR      57  30  34 CALM      30.12S
$$

COZ041-046-047-076>085-087-088-030300-
...PIKES PEAK/PALMER DIVIDE AND SOUTHERN FOOTHILLS...

CITY           SKY/WX    TMP DP  RH WIND       PRES   REMARKS
COLO. SPRINGS  FAIR      50  27  40 SE9       30.14R
A. F. ACADEMY  NOT AVBL
SCHRIEVER AFB  NOT AVBL
ELLICOTT       FAIR     N/A N/A N/A E10       30.13R
FALCON         FAIR      43  24  46 N6        30.16S
FORT CARSON    FAIR      50  31  49 S7        30.12R
LIMON          FAIR      41  32  70 CALM      30.11F
MONUMENT HILL  MOCLDY    41  27  56 N3        30.17S
TRINIDAD       FAIR      49  31  49 E3        30.13S
$$

COZ042>045-048>051-090-091-030300-
...NORTHEAST COLORADO...

CITY           SKY/WX    TMP DP  RH WIND       PRES   REMARKS
GREELEY ARPT   FAIR      55  27  33 NW8       30.10R
AKRON          FAIR      46  32  58 SW8       30.07S
BURLINGTON     FAIR      53  22  29 CALM      30.08F
WRAY           NOT AVBL
STERLING       FAIR      54  34  47 W7        30.03F
HOLYOKE        NOT AVBL
FORT MORGAN    FAIR      51  27  39 N6        30.08S
$$

COZ086-089-092>099-030300-
...SOUTHEAST COLORADO...

CITY           SKY/WX    TMP DP  RH WIND       PRES   REMARKS
PUEBLO         FAIR      57  28  33 S8        30.08S
LA JUNTA       FAIR      56  30  37 S6        30.08F
LAMAR          FAIR      51  32  48 S6        30.06S
SPRINGFIELD      N/A     48  32  53 N5        30.11S
$$




USA.gov is the U.S. government's official web portal to all federal, state and local government web resources and services.